Weather History for KO69 - April, 2014

Change the Weather History Date:

Tuesday, April 1, 2014

  Actual Average (KAPC) Record (KAPC)
Temperature  
Mean Temperature 48 °F 53 °F  
Max Temperature 55 °F 66 °F 85 °F (1966)
Min Temperature 41 °F 40 °F 33 °F (1999)
Degree Days  
Heating Degree Days 17    
Month to date heating degree days  
Since 1 July heating degree days  
Cooling Degree Days 0    
Month to date cooling degree days  
Year to date cooling degree days  
Moisture  
Dew Point 45 °F    
Average Humidity 94    
Maximum Humidity 100    
Minimum Humidity 58    
Precipitation  
Precipitation 0.45 in - 2.06 in (1927)
Month to date precipitation  
Year to date precipitation  
Sea Level Pressure  
Sea Level Pressure 29.90 in    
Wind  
Wind Speed 3 mph (ESE)    
Max Wind Speed 15 mph    
Max Gust Speed 33 mph    
Visibility 9 miles    
Events      
T = Trace of Precipitation, MM = Missing Value Source: NWS Daily Summary

Daily Weather History Graph

Daily Weather History Graph

Search for Another Location

Airport or City:

Trip Planner

Search our weather history database for the weather conditions in past years. The results will help you decide how hot, cold, wet, or windy it might be!

Date:

Astronomy

Apr. 01, 2014 Rise Set
Actual Time 6:55 AM PDT 7:33 PM PDT
Civil Twilight 6:28 AM PDT 8:00 PM PDT
Nautical Twilight 5:57 AM PDT 8:31 PM PDT
Astronomical Twilight 5:25 AM PDT 9:04 PM PDT
Moon 8:03 AM PDT (4/1) 9:59 PM PDT (4/1)
Length of Visible Light 13h 31m
Length of Day
12h 38m
Waxing Crescent, 5% of the Moon is Illuminated
Apr 1
Waxing Crescent
Apr 7
First Quarter
Apr 15
Full
Apr 22
Last Quarter
Apr 28
New

Hourly Weather History & Observations

Time (PDT) Temp. Windchill Dew Point Humidity Pressure Visibility Wind Dir Wind Speed Gust Speed Precip Events Conditions
12:15 AM 44.6 °F - 44.6 °F 100% 29.92 in 10.0 mi Calm Calm - N/A   Overcast
12:35 AM 44.6 °F - 44.6 °F 100% 29.91 in 10.0 mi Calm Calm - N/A   Overcast
12:55 AM 42.8 °F - 42.8 °F 100% 29.91 in 10.0 mi Calm Calm - N/A   Mostly Cloudy
1:15 AM 41.0 °F - 41.0 °F 100% 29.92 in 10.0 mi Calm Calm - N/A   Overcast
1:35 AM 41.0 °F - 41.0 °F 100% 29.91 in 10.0 mi Calm Calm - N/A   Overcast
1:55 AM 41.0 °F 38.0 °F 41.0 °F 100% 29.92 in 10.0 mi SE 4.6 mph - N/A   Overcast
2:15 AM 41.0 °F 39.0 °F 41.0 °F 100% 29.93 in 10.0 mi ESE 3.5 mph - N/A   Overcast
2:35 AM 41.0 °F 39.0 °F 41.0 °F 100% 29.92 in 10.0 mi ESE 3.5 mph - N/A   Overcast
2:55 AM 42.8 °F 39.3 °F 42.8 °F 100% 29.92 in 10.0 mi East 5.8 mph - N/A   Overcast
3:15 AM 44.6 °F 43.1 °F 44.6 °F 100% 29.91 in 8.0 mi East 3.5 mph - 0.01 in   Overcast
3:35 AM 44.6 °F 43.1 °F 44.6 °F 100% 29.91 in 7.0 mi East 3.5 mph - 0.02 in   Overcast
3:55 AM 44.6 °F - 44.6 °F 100% 29.91 in 3.0 mi Calm Calm - 0.10 in   Overcast
4:15 AM 44.6 °F 42.2 °F 44.6 °F 100% 29.90 in 9.0 mi ENE 4.6 mph - 0.01 in   Overcast
4:35 AM 44.6 °F - 44.6 °F 100% 29.91 in 10.0 mi Calm Calm - 0.01 in   Overcast
4:55 AM 44.6 °F 43.1 °F 44.6 °F 100% 29.90 in 9.0 mi ESE 3.5 mph - 0.03 in   Overcast
5:15 AM 42.8 °F 41.1 °F 42.8 °F 100% 29.90 in 10.0 mi ENE 3.5 mph - N/A   Overcast
5:35 AM 44.6 °F - 44.6 °F 100% 29.91 in 5.0 mi Calm Calm - 0.01 in   Overcast
5:55 AM 44.6 °F - 44.6 °F 100% 29.90 in 5.0 mi Calm Calm - 0.03 in   Overcast
6:15 AM 44.6 °F 43.1 °F 44.6 °F 100% 29.90 in 10.0 mi East 3.5 mph - N/A   Overcast
6:35 AM 44.6 °F - 44.6 °F 100% 29.91 in 7.0 mi Calm Calm - 0.03 in   Overcast
6:55 AM 44.6 °F 43.1 °F 44.6 °F 100% 29.91 in 10.0 mi East 3.5 mph - 0.04 in   Overcast
7:15 AM 44.6 °F 43.1 °F 44.6 °F 100% 29.91 in 10.0 mi East 3.5 mph - 0.01 in   Overcast
7:35 AM 44.6 °F - 44.6 °F 100% 29.92 in 10.0 mi Calm Calm - 0.01 in   Mostly Cloudy
7:55 AM 44.6 °F - 44.6 °F 100% 29.93 in 10.0 mi Calm Calm - 0.01 in   Mostly Cloudy
8:15 AM 46.4 °F - 46.4 °F 100% 29.93 in 10.0 mi Calm Calm - N/A   Mostly Cloudy
8:35 AM 46.4 °F 42.9 °F 46.4 °F 100% 29.92 in 10.0 mi ESE 6.9 mph - N/A   Mostly Cloudy
8:55 AM 48.2 °F - 46.4 °F 93% 29.93 in 10.0 mi ESE 5.8 mph - N/A   Mostly Cloudy
9:15 AM 48.2 °F - 48.2 °F 100% 29.93 in 8.0 mi ESE 8.1 mph - 0.01 in   Mostly Cloudy
9:35 AM 48.2 °F - 48.2 °F 100% 29.94 in 10.0 mi ESE 4.6 mph - 0.03 in   Overcast
9:55 AM 48.2 °F - 48.2 °F 100% 29.94 in 10.0 mi ESE 4.6 mph - 0.03 in   Mostly Cloudy
10:15 AM 48.2 °F - 48.2 °F 100% 29.94 in 10.0 mi East 6.9 mph - N/A   Mostly Cloudy
10:35 AM 50.0 °F - 48.2 °F 94% 29.94 in 10.0 mi East 6.9 mph - N/A   Mostly Cloudy
10:55 AM 51.8 °F - 50.0 °F 94% 29.93 in 10.0 mi East 6.9 mph - N/A   Mostly Cloudy
11:15 AM 53.6 °F - 44.6 °F 72% 29.93 in 10.0 mi South 8.1 mph - N/A   Mostly Cloudy
11:35 AM 55.4 °F - 41.0 °F 58% 29.92 in 10.0 mi South 9.2 mph 17.3 mph N/A   Mostly Cloudy
11:55 AM 53.6 °F - 46.4 °F 77% 29.92 in 10.0 mi SSE 12.7 mph 18.4 mph N/A   Overcast
12:15 PM 50.0 °F - 46.4 °F 87% 29.92 in 5.0 mi SE 12.7 mph 24.2 mph 0.01 in   Overcast
12:35 PM 51.8 °F - 48.2 °F 88% 29.92 in 10.0 mi SE 10.4 mph - 0.01 in   Mostly Cloudy
12:55 PM 53.6 °F - 46.4 °F 77% 29.91 in 10.0 mi SE 8.1 mph - 0.01 in   Mostly Cloudy
1:15 PM 53.6 °F - 46.4 °F 77% 29.91 in 10.0 mi SSE 9.2 mph - N/A   Mostly Cloudy
1:35 PM 53.6 °F - 44.6 °F 72% 29.90 in 10.0 mi SSE 5.8 mph - N/A   Overcast
1:55 PM 55.4 °F - 41.0 °F 58% 29.89 in 10.0 mi SSW 10.4 mph - N/A   Mostly Cloudy
2:15 PM 55.4 °F - 41.0 °F 58% 29.88 in 10.0 mi SSW 9.2 mph - N/A   Mostly Cloudy
2:35 PM 53.6 °F - 44.6 °F 72% 29.88 in 8.0 mi South 8.1 mph - N/A   Scattered Clouds
2:55 PM 53.6 °F - 44.6 °F 72% 29.87 in 10.0 mi SE 5.8 mph - N/A   Mostly Cloudy
3:15 PM 53.6 °F - 44.6 °F 72% 29.87 in 10.0 mi SSE 10.4 mph - N/A   Mostly Cloudy
3:35 PM 48.2 °F - 44.6 °F 87% 29.88 in 2.0 mi SSW 15.0 mph 33.4 mph 0.02 in   Overcast
3:55 PM 46.4 °F 41.9 °F 46.4 °F 100% 29.86 in 3.0 mi ESE 9.2 mph - 0.05 in   Mostly Cloudy
4:15 PM 46.4 °F 43.5 °F 46.4 °F 100% 29.86 in 10.0 mi ESE 5.8 mph - N/A   Overcast
4:35 PM 46.4 °F 40.7 °F 44.6 °F 93% 29.87 in 3.0 mi SW 12.7 mph 27.6 mph 0.08 in   Mostly Cloudy
4:55 PM 46.4 °F 45.2 °F 44.6 °F 93% 29.86 in 7.0 mi East 3.5 mph - 0.12 in   Overcast
5:15 PM 46.4 °F 45.2 °F 46.4 °F 100% 29.85 in 10.0 mi ENE 3.5 mph - N/A   Mostly Cloudy
5:35 PM 46.4 °F - 44.6 °F 93% 29.85 in 9.0 mi Calm Calm - 0.01 in   Overcast
5:55 PM 46.4 °F 44.3 °F 46.4 °F 100% 29.86 in 7.0 mi ESE 4.6 mph - 0.02 in   Overcast
6:15 PM 46.4 °F 42.9 °F 46.4 °F 100% 29.85 in 5.0 mi East 6.9 mph - 0.01 in   Overcast
6:35 PM 46.4 °F 43.5 °F 46.4 °F 100% 29.85 in 8.0 mi East 5.8 mph - 0.01 in   Overcast
6:55 PM 46.4 °F 44.3 °F 46.4 °F 100% 29.85 in 10.0 mi East 4.6 mph - 0.01 in   Mostly Cloudy
7:15 PM 46.4 °F 44.3 °F 46.4 °F 100% 29.85 in 10.0 mi East 4.6 mph - N/A   Scattered Clouds
7:35 PM 46.4 °F 45.2 °F 46.4 °F 100% 29.85 in 10.0 mi East 3.5 mph - N/A   Mostly Cloudy
7:55 PM 46.4 °F 44.3 °F 46.4 °F 100% 29.85 in 10.0 mi East 4.6 mph - N/A   Overcast
8:15 PM 44.6 °F 43.1 °F 44.6 °F 100% 29.85 in 10.0 mi East 3.5 mph - N/A   Overcast
8:35 PM 44.6 °F 43.1 °F 44.6 °F 100% 29.86 in 10.0 mi East 3.5 mph - N/A   Overcast
8:55 PM 44.6 °F 43.1 °F 44.6 °F 100% 29.87 in 10.0 mi East 3.5 mph - N/A   Overcast
9:15 PM 44.6 °F 42.2 °F 44.6 °F 100% 29.87 in 10.0 mi ENE 4.6 mph - N/A   Overcast
9:35 PM 46.4 °F 44.3 °F 44.6 °F 93% 29.87 in 10.0 mi ENE 4.6 mph - N/A   Overcast
9:55 PM 44.6 °F - 44.6 °F 100% 29.87 in 10.0 mi Calm Calm - N/A   Overcast
10:15 PM 44.6 °F - 44.6 °F 100% 29.88 in 10.0 mi Calm Calm - N/A   Overcast
10:35 PM 44.6 °F - 44.6 °F 100% 29.88 in 10.0 mi Calm Calm - N/A   Overcast
10:55 PM 44.6 °F 43.1 °F 44.6 °F 100% 29.88 in 10.0 mi SE 3.5 mph - N/A   Overcast
11:15 PM 44.6 °F - 44.6 °F 100% 29.88 in 10.0 mi Calm Calm - N/A   Overcast
11:35 PM 44.6 °F - 44.6 °F 100% 29.88 in 10.0 mi Calm Calm - N/A   Overcast
11:55 PM 44.6 °F 42.2 °F 44.6 °F 100% 29.89 in 10.0 mi East 4.6 mph - N/A   Overcast